SCP
1 1 1 1 1 1 1 1 1 1 1 1 1 1 1 1 1 1 1 1 1 2 1 1 1 1 1 1 0 0 0 1 1 1 2 2 1 1 1 1 1 1 1
1 1 1 1 1 1 1 1 1 1 1 1 1 1 1 1 1 1 1 1 1 1 1 1 1 1 1 1 0 0 0 0 1 1 1 1 1 1 1 2 2 2 1
1 1 2 2 2 2 1 1 1 1 1 1 1 1 1 1 1 1 1 1 1 1 1 1 1 1 1 1 1 0 0 0 0 0 1 1 1 1 2 2 3 2 2
1 1 2 2 2 2 2 1 1 1 1 1 1 1 1 1 1 1 1 1 1 1 1 1 1 0 1 1 1 0 0 0 0 0 0 0 1 1 2 3 2 2 1
1 1 1 2 2 2 2 2 1 1 1 1 1 1 1 1 1 1 1 1 1 1 1 1 0 0 0 0 1 0 0 0 0 0 0 0 1 1 2 2 2 1 1
1 1 1 2 2 2 2 2 2 2 1 1 1 1 1 1 1 1 0 0 0 0 1 1 0 0 0 0 0 0 0 0 0 0 0 0 1 1 2 2 1 1 1
1 1 1 1 2 2 2 2 2 2 2 2 2 1 1 1 1 1 1 0 0 0 1 1 1 1 1 1 1 1 1 1 0 0 0 0 1 1 2 1 1 1 1
0 0 1 1 1 1 1 2 2 2 2 2 2 2 1 1 1 1 1 1 0 0 0 0 1 1 1 1 1 1 1 1 1 1 1 1 1 1 1 1 1 1 1
0 0 1 1 1 1 1 1 1 2 2 2 2 2 2 1 1 1 1 1 1 1 0 0 1 1 1 1 1 1 1 1 1 1 1 1 1 1 1 1 1 1 1
0 0 1 1 1 1 1 1 1 1 2 2 2 2 2 1 1 1 1 1 1 1 1 1 1 1 1 1 1 1 1 1 1 1 1 1 1 1 1 1 1 1 1
0 0 0 0 0 0 0 0 1 1 1 1 1 1 1 1 1 1 1 1 1 1 1 1 1 1 1 1 1 1 1 1 1 1 1 1 1 1 1 1 1 1 1
0 0 0 0 0 0 0 0 0 1 1 1 1 1 1 1 1 1 1 1 1 1 1 1 1 1 1 1 1 1 1 1 1 1 1 1 1 1 1 1 1 1 1
1 0 0 0 0 0 1 1 0 0 1 1 1 1 1 1 1 1 1 1 1 1 1 1 1 1 1 1 1 1 1 1 1 1 1 1 1 2 2 2 2 2 2
1 1 1 0 0 1 1 1 1 1 1 1 1 1 1 1 1 1 1 1 1 1 1 1 1 1 1 1 1 1 1 1 1 1 1 1 2 2 3 3 2 2 3
1 1 1 1 1 1 1 2 1 1 1 1 1 1 1 2 1 1 1 1 1 1 1 1 1 1 1 1 1 1 1 1 1 1 1 2 2 3 3 3 3 3 3
1 1 1 1 1 2 2 3 3 2 2 2 2 2 2 2 2 2 2 1 1 1 1 1 1 1 1 1 1 1 1 1 1 1 1 2 2 3 3 3 3 3 3
1 1 1 1 2 2 3 4 4 3 3 2 1 2 2 2 2 2 2 1 1 1 1 1 1 1 1 1 1 1 1 1 1 1 1 1 2 2 2 2 2 3 3
1 2 2 2 2 3 3 4 4 3 2 1 1 1 1 1 2 2 2 1 1 1 1 1 1 1 1 1 1 1 1 1 1 1 1 1 2 2 2 2 2 2 3
2 2 2 2 2 2 3 3 2 1 1 1 1 1 1 1 1 1 1 1 1 1 1 1 1 1 1 1 1 1 1 1 1 1 1 1 2 2 2 1 2 2 3
3 2 2 2 2 2 2 2 1 1 1 1 1 1 1 1 1 1 1 1 1 1 1 1 1 1 1 1 1 0 0 1 1 1 2 2 2 2 2 2 2 2 3
4 4 3 2 2 2 2 1 1 1 1 1 1 1 1 1 1 1 1 1 1 0 0 1 0 0 0 0 0 0 0 1 1 2 2 2 2 2 2 2 2 2 2
5 4 3 2 2 2 2 1 1 1 1 1 1 1 1 1 1 1 1 1 0 0 0 1 0 0 0 0 0 0 0 1 1 1 2 2 2 2 2 2 2 2 2
4 4 3 2 2 2 1 1 1 1 1 1 1 1 1 1 1 1 1 1 1 1 1 1 1 1 1 1 1 1 1 1 1 1 1 1 2 2 2 2 2 2 2
5 4 3 2 2 2 2 1 1 1 1 1 1 1 1 1 1 1 1 1 1 1 1 1 1 1 1 1 1 1 1 1 1 1 1 1 1 1 2 2 2 2 2
6 5 3 3 3 3 2 1 1 1 1 1 1 1 1 1 1 1 1 1 1 1 1 1 1 1 1 1 1 1 1 2 2 2 1 1 1 1 1 1 2 2 2
6 5 4 4 4 3 2 1 1 1 1 1 1 1 1 1 1 1 1 1 1 1 2 2 1 1 1 1 1 2 2 2 2 2 2 1 1 1 1 1 1 2 2
Wind_Speed
2 4 9 11 13 13 13 13 14 15 15 15 16 16 17 17 17 16 15 14 14 14 14 13 13 13 14 13 12 12 12 11 11 11 10 10 9 9 9 10 10 7 10
6 6 10 11 13 13 13 14 14 14 15 15 15 16 16 16 16 15 14 14 13 13 13 12 13 13 13 12 11 10 10 10 10 10 10 8 8 8 8 9 9 6 9
8 6 8 11 13 13 14 14 14 14 15 15 15 15 15 15 15 15 14 13 13 13 12 12 12 12 11 10 10 9 9 9 9 9 8 4 5 7 8 9 9 9 9
8 6 8 12 13 14 14 13 14 14 15 15 15 15 15 14 15 14 14 13 13 12 12 11 11 10 10 9 8 7 7 7 7 6 3 3 3 7 8 9 9 9 9
8 7 9 14 14 14 14 14 14 14 15 15 15 14 14 14 14 14 13 13 12 11 11 10 10 9 8 7 6 5 5 5 5 4 3 3 3 6 8 8 8 8 9
8 7 9 14 14 15 14 14 14 14 15 15 14 14 14 14 13 13 12 12 11 10 10 9 8 8 7 6 5 4 4 4 3 2 3 3 3 6 8 8 8 8 8
8 6 8 13 14 14 14 14 14 14 14 14 14 13 13 13 12 12 11 10 10 9 9 8 7 6 5 4 3 3 2 3 3 3 3 3 4 8 8 8 8 8 8
10 7 7 13 14 14 14 14 13 13 13 13 13 13 12 12 11 11 10 10 9 8 7 7 6 5 4 3 2 2 2 1 4 4 3 3 6 8 9 8 8 8 8
9 8 6 6 9 12 13 13 13 12 12 12 12 12 12 11 10 10 9 9 8 7 7 6 6 5 4 3 2 2 2 2 2 3 5 3 7 9 9 9 9 9 9
7 7 6 5 5 5 6 11 11 11 12 12 11 11 11 10 9 9 8 7 7 7 7 6 5 5 4 3 3 3 3 2 2 3 3 5 9 10 10 10 10 9 9
7 5 6 6 5 4 5 8 8 9 9 10 8 10 8 4 4 4 6 7 7 6 6 6 5 4 4 3 4 4 2 1 2 2 3 7 10 10 10 10 10 10 9
8 6 5 5 5 5 5 4 2 3 3 4 3 4 3 3 3 4 5 7 6 6 5 5 5 5 3 2 3 3 1 2 2 2 4 9 10 10 10 10 10 10 9
8 7 6 5 5 4 3 3 2 1 2 3 3 3 3 2 2 2 1 2 2 3 2 3 3 2 2 2 2 2 2 2 2 2 4 9 10 10 11 10 9 10 9
8 7 6 6 5 4 4 3 3 2 2 2 3 4 3 2 2 2 2 2 1 1 1 1 1 2 3 3 3 3 3 3 2 2 4 10 11 11 11 10 11 11 10
7 6 6 6 6 5 4 3 4 3 3 3 2 3 4 3 3 2 2 2 2 2 2 2 2 2 2 3 3 4 4 4 4 4 3 9 10 11 11 11 11 11 11
6 6 5 6 6 5 4 4 3 3 3 3 3 3 4 3 3 3 2 2 2 2 2 2 3 2 2 2 3 3 3 3 4 4 4 6 10 11 11 11 11 11 11
7 6 5 5 5 5 4 4 4 3 3 3 2 3 4 3 3 3 2 2 2 2 2 1 2 1 2 2 3 3 3 3 4 4 4 3 5 9 11 11 11 11 12
8 7 6 6 5 5 4 4 3 3 3 2 2 2 3 3 4 3 2 2 2 1 1 1 1 1 1 1 2 2 2 2 3 3 3 3 3 4 7 11 11 11 12
8 8 6 5 6 5 4 3 3 2 2 2 2 2 2 3 3 3 2 2 2 1 1 1 1 1 1 2 2 2 2 2 2 2 3 4 4 4 4 7 11 11 12
7 7 7 6 6 5 3 3 2 2 1 1 2 2 3 3 3 3 2 2 2 1 0 1 1 1 1 2 2 2 2 2 2 2 4 3 3 4 4 4 4 6 10
7 7 7 6 5 4 3 3 2 2 1 1 1 2 2 3 3 3 2 2 1 1 1 1 1 0 1 1 1 2 3 2 2 2 3 2 3 3 3 4 3 3 4
8 7 7 7 6 5 3 3 2 2 2 2 1 1 2 2 3 3 3 2 1 1 1 0 1 1 1 0 1 1 2 4 3 2 2 2 3 2 3 4 4 4 4
8 8 8 7 6 5 4 3 2 1 1 1 0 0 1 2 3 3 3 2 2 2 1 1 1 2 1 1 1 2 1 2 3 3 2 1 2 2 3 3 4 5 5
9 8 7 8 7 6 5 4 4 3 2 2 2 1 1 2 2 3 3 3 2 2 1 2 2 2 2 1 1 1 2 3 1 3 3 2 2 3 3 3 3 4 4
9 8 8 7 6 6 5 5 5 3 2 1 1 1 1 1 2 2 3 2 2 2 2 2 1 1 2 2 1 1 1 1 1 2 3 3 3 3 3 3 3 3 3
7 7 7 7 6 6 5 5 5 5 3 3 2 1 1 1 1 1 2 2 2 2 3 3 2 2 2 2 2 2 1 1 1 2 2 3 3 4 3 2 2 2 2
Wind_Direction
142 146 129 120 116 117 117 115 114 114 114 115 117 118 118 119 120 121 122 124 124 123 123 123 123 122 122 121 120 121 121 120 117 114 111 110 113 115 116 119 118 115 114
148 144 131 123 119 119 119 118 118 118 119 120 119 120 121 121 122 123 124 125 124 124 123 123 125 123 123 124 125 125 126 126 122 117 114 112 114 117 119 125 125 123 123
139 139 133 126 122 120 120 121 120 120 121 122 122 122 122 123 123 122 122 125 125 124 122 121 123 126 127 127 129 130 131 131 126 120 116 112 118 124 126 130 128 130 130
143 141 132 129 125 124 124 123 123 123 124 124 124 125 125 125 126 124 120 119 122 122 124 127 129 130 131 130 131 134 139 140 137 132 118 119 123 130 132 134 134 137 137
133 133 135 130 128 127 125 124 124 124 125 126 126 127 127 127 128 127 125 123 123 124 124 128 133 134 131 131 135 140 146 151 154 147 126 123 127 141 142 141 143 144 142
128 130 136 133 130 128 126 124 125 126 129 129 130 129 130 130 130 130 129 127 127 127 128 132 134 133 133 134 139 146 151 157 147 133 135 142 151 153 151 151 152 152 151
131 133 136 133 131 129 129 128 128 130 131 133 134 134 133 133 132 134 133 131 131 132 134 135 139 140 140 140 140 154 166 164 137 138 153 157 166 161 158 158 157 159 162
137 138 137 136 134 133 133 133 134 135 135 136 139 140 140 139 138 139 140 139 141 141 142 145 150 153 153 157 164 168 184 175 142 157 167 170 173 168 164 161 166 169 171
136 136 137 138 139 140 139 140 140 140 141 141 143 145 146 147 147 147 147 148 150 153 153 154 161 165 170 186 214 233 231 188 143 167 173 178 181 177 172 171 174 178 179
131 136 140 140 138 141 144 147 145 145 148 149 150 152 152 154 154 153 154 156 158 163 168 171 176 184 194 208 232 240 240 201 168 179 182 183 184 183 180 180 184 185 185
137 144 145 149 148 144 149 155 152 151 152 152 152 157 154 153 157 163 171 169 169 172 180 186 185 198 210 227 247 249 242 188 183 185 191 189 188 190 188 189 191 193 192
154 158 154 151 154 155 157 140 140 146 141 140 141 150 150 153 171 180 187 184 181 183 192 196 198 208 220 239 252 250 214 191 204 199 198 194 194 193 194 194 195 200 198
158 159 159 157 157 157 145 140 144 145 145 146 153 158 159 160 167 179 180 194 198 203 214 211 206 213 226 236 253 250 214 203 213 212 203 197 196 195 200 200 202 206 206
152 157 156 155 152 154 147 153 155 159 167 169 168 165 161 156 157 166 177 188 193 209 219 221 207 219 235 247 243 243 230 217 214 206 204 199 198 200 203 204 207 209 210
145 146 152 148 150 152 146 156 152 162 170 173 168 169 164 162 169 173 186 194 203 208 211 217 217 224 241 257 254 241 229 221 216 206 208 201 200 202 205 209 213 215 215
149 151 151 145 149 148 148 149 155 160 161 160 170 174 167 167 171 174 180 190 209 215 217 218 219 222 233 242 257 256 240 219 214 211 214 209 209 209 212 217 219 221 221
154 154 150 144 142 142 140 142 146 150 149 155 164 170 171 168 170 169 171 186 205 206 212 218 235 234 243 247 257 264 255 230 219 216 213 207 211 215 217 220 221 226 228
153 154 158 149 141 134 132 135 138 148 152 160 162 166 170 171 165 161 163 195 207 190 189 201 214 232 266 265 271 278 285 262 226 218 210 209 211 219 223 224 225 229 232
157 155 155 147 144 141 138 138 138 149 158 164 167 173 176 171 163 158 167 183 188 179 200 226 201 187 250 281 272 270 277 263 246 229 222 221 216 218 220 227 232 236 237
155 151 152 148 149 145 132 119 111 114 142 155 172 178 176 172 163 153 153 159 149 145 229 228 215 225 231 255 276 292 281 257 251 236 238 231 218 222 223 227 231 241 241
153 151 154 152 158 149 139 140 143 161 175 179 186 176 172 174 164 156 160 155 150 155 204 214 185 233 289 330 5 329 319 297 258 239 236 234 228 228 221 223 225 229 240
163 159 157 160 163 164 163 162 162 162 177 180 193 177 172 163 164 163 162 167 168 163 187 185 139 126 282 96 132 32 341 335 326 283 258 236 241 239 230 225 218 227 235
168 170 166 166 167 169 161 140 121 85 60 71 105 209 214 179 177 168 170 168 173 170 187 204 171 155 216 284 151 147 156 264 303 311 297 284 268 250 245 238 228 231 228
177 172 167 167 168 169 161 152 154 159 173 200 192 200 219 198 191 179 173 174 182 182 194 223 182 175 169 245 297 215 201 195 204 304 316 310 297 275 263 252 244 238 229
178 175 171 166 167 170 166 164 161 166 178 177 155 152 199 244 205 190 183 182 188 195 203 215 200 184 181 195 219 251 272 249 185 192 283 306 310 285 270 258 253 249 241
173 173 169 168 173 173 168 167 168 169 171 163 172 180 217 235 237 216 189 190 203 204 205 211 211 210 209 212 220 208 206 220 228 204 240 272 284 285 282 271 269 256 245